Location: Nitra
(48.3167°N, 18.0833°E)
Time: 05:53:47
(UTC+01:00)

ISS - Pass Details

Date: 28 February 2019
Orbit: 406 x 411 km, 51.6° (Epoch: 23 March)

Event Time Altitude Azimuth Distance (km) Brightness Sun altitude
Exits shadow 05:29:54 15° 244° (WSW) 1,187 -2.0 -11.1°
Maximum altitude 05:32:30 84° 159° (SSE) 413 -3.8 -10.6°
Drops below altitude 10° 05:35:48 10° 69° (ENE) 1,470 0.2 -10.1°
Sets 05:37:53 0° 68° (ENE) 2,334 1.4 -9.7°
